York, PA

6:45 AM EST on December 11, 2019 (GMT -0500)
York

Weather History for KTHV - October, 2019

Change the Weather History Date:

Thursday, October 17, 2019

  Actual Average Record
Temperature  
Mean Temperature 52 °F -  
Max Temperature 59 °F 0 °F 93 °F (2007)
Min Temperature 48 °F - 32 °F (2004)
Degree Days  
Heating Degree Days 12    
Growing Degree Days 2 (Base 50)    
Moisture  
Dew Point 36 °F    
Average Humidity 54    
Maximum Humidity 68    
Minimum Humidity 44    
Precipitation  
Precipitation 0.00 in - - ()
Sea Level Pressure  
Sea Level Pressure 29.61 in    
Wind  
Wind Speed 12 mph ()    
Max Wind Speed 22 mph    
Max Gust Speed 39 mph    
Visibility 10.0 miles    
Events Rain    
Averages and records for this station are not official NWS values.
T = Trace of Precipitation, MM = Missing Value Source: Averaged Metar Reports

Daily Weather History Graph

Daily Weather History Graph

Search for Another Location

Airport or City:

Astronomy

Oct. 17, 2019 Rise Set
Actual Time 7:19 AM EDT 6:25 PM EDT
Civil Twilight 6:52 AM EDT 6:52 PM EDT
Nautical Twilight 6:20 AM EDT 7:24 PM EDT
Astronomical Twilight 5:49 AM EDT 7:55 PM EDT
Moon 8:55 PM EDT (10/17) 10:49 AM EDT (10/17)
Length of Visible Light 12h 00m
Length of Day
11h 05m
Waning Gibbous, 87% of the Moon is Illuminated
Oct 17
Waning Gibbous
Oct 21
Last Quarter
Oct 27
New
Nov 4
First Quarter
Nov 12
Full

Hourly Weather History & Observations

Time (EDT) Temp. Dew Point Humidity Pressure Visibility Wind Dir Wind Speed Gust Speed Precip Events Conditions
12:53 AM 50.0 °F 37.9 °F 63% 29.50 in 10.0 mi West 10.4 mph - N/A   Mostly Cloudy
1:53 AM 52.0 °F 37.9 °F 59% 29.50 in 10.0 mi West 11.5 mph 20.7 mph N/A   Overcast
2:53 AM 52.0 °F 37.9 °F 59% 29.49 in 10.0 mi WNW 9.2 mph 20.7 mph N/A   Overcast
3:53 AM 50.0 °F 39.9 °F 68% 29.49 in 10.0 mi West 18.4 mph 26.5 mph 0.00 in Rain Light Rain
4:53 AM 50.0 °F 37.9 °F 63% 29.49 in 10.0 mi WNW 15.0 mph 25.3 mph 0.00 in   Mostly Cloudy
5:53 AM 48.9 °F 36.0 °F 61% 29.52 in 10.0 mi West 8.1 mph 18.4 mph N/A   Partly Cloudy
6:53 AM 48.9 °F 36.0 °F 61% 29.52 in 10.0 mi West 8.1 mph 18.4 mph N/A   Overcast
7:53 AM 50.0 °F 36.0 °F 59% 29.54 in 10.0 mi West 13.8 mph 19.6 mph N/A   Overcast
9:53 AM 53.1 °F 36.0 °F 52% 29.55 in 10.0 mi WNW 16.1 mph 31.1 mph N/A   Unknown
10:53 AM 55.0 °F 35.1 °F 47% 29.56 in 10.0 mi WNW 18.4 mph 39.1 mph N/A   Mostly Cloudy
11:53 AM 57.0 °F 36.0 °F 45% 29.57 in 10.0 mi WNW 20.7 mph 32.2 mph N/A   Mostly Cloudy
12:53 PM 57.0 °F 35.1 °F 44% 29.58 in 10.0 mi WNW 17.3 mph 32.2 mph N/A   Partly Cloudy
1:53 PM 57.0 °F 36.0 °F 45% 29.59 in 10.0 mi West 15.0 mph 29.9 mph N/A   Mostly Cloudy
2:53 PM 55.9 °F 35.1 °F 45% 29.61 in 10.0 mi WNW 21.9 mph 32.2 mph N/A   Overcast
3:53 PM 55.9 °F 36.0 °F 47% 29.63 in 10.0 mi West 13.8 mph 32.2 mph N/A   Overcast
4:53 PM 54.0 °F 35.1 °F 49% 29.66 in 10.0 mi WNW 13.8 mph 29.9 mph N/A   Overcast
5:53 PM 53.1 °F 35.1 °F 50% 29.68 in 10.0 mi WNW 15.0 mph 24.2 mph N/A   Overcast
6:53 PM 52.0 °F 35.1 °F 53% 29.72 in 10.0 mi WNW 13.8 mph 23.0 mph N/A   Overcast
7:53 PM 51.1 °F 35.1 °F 54% 29.74 in 10.0 mi WNW 10.4 mph 21.9 mph N/A   Overcast
8:53 PM 51.1 °F 35.1 °F 54% 29.76 in 10.0 mi WNW 12.7 mph 25.3 mph N/A   Overcast
9:53 PM 51.1 °F 36.0 °F 56% 29.79 in 10.0 mi WNW 8.1 mph - N/A   Overcast
10:53 PM 51.1 °F 36.0 °F 56% 29.80 in 10.0 mi West 8.1 mph - N/A   Overcast
11:53 PM 51.1 °F 36.0 °F 56% 29.80 in 10.0 mi WNW 12.7 mph 19.6 mph N/A   Overcast